Location: Newark
(25.4800°N, 85.7200°E)
Time: 15:27:43
(UTC+00:00)

Vanguard 1 Rocket - Pass Details

Date: 20 August 2019
Orbit: 651 x 4225 km, 34.3° (Epoch: 20 September)

Event Time Altitude Azimuth Distance (km) Brightness Sun altitude
Exits shadow 23:28:00 -1° 293° (WNW) 3,334 9.8 -6.2°
Rises 23:28:09 0° 293° (WNW) 3,278 9.8 -6.2°
Reaches altitude 10° 23:30:15 10° 300° (WNW) 2,538 9.3 -5.8°
Maximum altitude 23:35:59 47° 15° (NNE) 1,577 8.9 -4.5°
Drops below altitude 10° 23:46:17 10° 86° (E) 4,499 12.8 -2.3°
Sets 23:51:20 0° 92° (E) 6,123 13.5 -1.2°
